« Tuesday, January 13, 2009 | Main | Sunday, January 18, 2009 »

Saturday, January 17, 2009

Much warmer, but still cold, with light breeze from northwest. Sky clear after sunset, except for clouds at western horizon. Scattering of skiers, runners, fishermen, walkers, dogs.

National Weather Service
Minneapolis-St. Paul International Airport
Lat: 44.89 Lon: -93.22 Elev: 834
Last Update on Jan 17, 4:53 pm CST
Partly Cloudy
15°F
(-9°C)
Humidity: 67 %
Wind Speed: NW 14 MPH
Barometer: 29.82" (1011.6 mb)
Dewpoint: 6°F (-14°C)
Wind Chill: 0°F (-18°C)
Visibility: 10.00 mi.

3 Day History
17 16:53 NW 14 10.00 Partly Cloudy SCT027 15 6 29.82 1011.6
17 15:53 NW 23 G 32 10.00 Overcast and Breezy SCT029 OVC037 16 7 29.80 1010.8
17 14:53 NW 21 G 28 5.00 Light Snow and Breezy BKN026 OVC036 17 9 29.76 1009.5
17 13:53 NW 22 G 29 6.00 Light Snow and Breezy SCT025 OVC032 18 10 29.74 1008.8
17 12:53 NW 22 G 37 4.00 Light Snow and Breezy BKN025 BKN032 OVC040 19 10 29.72 1008.0
17 11:53 NW 18 G 28 5.00 Light Snow BKN026 OVC031 20 11 21 17 29.72 1008.0
17 10:53 NW 21 G 29 9.00 Overcast and Breezy SCT021 OVC032 20 12 29.72 1008.1
17 09:53 W 20 G 31 2.00 Light Snow BKN022 OVC028 20 14 29.72 1008.1
17 08:53 NW 17 G 31 3.00 Light Snow BKN020 OVC025 21 14 29.70 1007.5
17 07:53 NW 12 8.00 Overcast OVC016 20 15 29.68 1006.8
17 06:53 W 10 9.00 Overcast OVC014 18 13 29.67 1006.5
17 05:53 SW 8 9.00 Overcast OVC018 17 11 17 8 29.66 1006.3
17 04:53 SW 7 10.00 Mostly Cloudy BKN020 BKN110 15 10 29.68 1007.0
17 03:53 S 7 9.00 Overcast OVC020 13 8 29.72 1008.5
17 02:53 S 12 10.00 Overcast BKN018 OVC039 12 6 29.77 1009.9
17 01:53 S 12 9.00 Light Snow OVC017 11 5 29.82 1011.6
17 00:53 SE 14 6.00 Light Snow Fog/Mist OVC017 8 4 29.87 1013.6
16 23:53 S 12 3.00 Light Snow Fog/Mist OVC013 7 4 7 3 29.94 1016.1
16 22:53 SE 9 2.50 Light Snow OVC019 6 1 30.00 1018.4
16 21:53 S 12 9.00 Light Snow BKN020 OVC025 5 -1 30.05 1020.1
16 20:53 S 10 8.00 Light Snow OVC024 4 -2 30.11 1022.3
16 19:53 S 12 9.00 Light Snow OVC026 3 -3 30.16 1024.0
16 18:53 S 12 9.00 Light Snow OVC028 3 -3 30.20 1025.6
16 17:53 S 15 G 21 9.00 Light Snow FEW018 OVC034 4 -3 4 -3 30.22 1026.2
16 16:53 S 12 9.00 Light Snow OVC034 4 -4 30.25 1027.1
16 15:53 SE 9 9.00 Light Snow FEW015 SCT030 OVC036 3 -4 30.30 1028.7
16 14:53 S 9 8.00 Light Snow OVC032 2 -7 30.32 1029.6
16 13:53 SE 12 10.00 Partly Cloudy FEW020 SCT250 2 -9 30.33 1030.0
16 12:53 S 9 10.00 Partly Cloudy SCT250 -0 -11 30.38 1031.7
16 11:53 SE 10 10.00 Partly Cloudy FEW038 SCT250 -3 -14 -3 -22 30.42 1033.2
16 10:53 SE 8 10.00 Partly Cloudy SCT040 SCT250 -8 -18 30.47 1034.9
16 09:53 E 8 9.00 A Few Clouds FEW250 -16 -21 30.48 1035.3
16 08:53 E 8 9.00 Fair CLR -20 -25 30.49 1036.0
16 07:53 SE 6 8.00 Fair CLR -22 -27 30.51 1036.6
16 06:53 SE 6 9.00 Light Snow CLR -22 -27 30.53 1037.2
16 05:53 SE 3 10.00 Fair CLR -21 -25 -16 -21 30.55 1037.7
16 04:53 S 3 10.00 Fair CLR -18 -23 30.56 1038.1
16 03:53 Calm 10.00 Fair CLR -18 -23 30.59 1039.0
16 02:53 Calm 10.00 Fair CLR -18 -23 30.60 1039.4
16 01:53 Calm 9.00 Fair CLR -17 -23 30.61 1039.6
16 00:53 SW 6 10.00 Fair CLR -17 -22 30.62 1040.1
15 23:53 SW 5 10.00 Fair CLR -16 -22 -11 -17 30.64 1040.7
15 22:53 Calm 10.00 Fair CLR -17 -22 30.66 1041.4
15 21:53 SW 5 10.00 Fair CLR -16 -22 30.66 1041.7
15 20:53 Calm 10.00 Fair CLR -15 -21 30.67 1042.1
15 19:53 W 7 10.00 Fair CLR -14 -21 30.68 1042.2
15 18:53 SW 3 10.00 Fair CLR -13 -21 30.67 1041.9
15 17:53 SW 7 10.00 Fair CLR -11 -19 -6 -11 30.67 1041.8
15 16:53 W 8 10.00 Fair CLR -8 -18 30.66 1041.5
15 15:53 W 7 10.00 Fair CLR -7 -18 30.67 1041.8
15 14:53 W 9 10.00 Fair CLR -6 -18 30.67 1041.8
15 13:53 W 10 10.00 Fair CLR -7 -18 30.67 1041.8
15 12:53 W 7 10.00 Fair CLR -9 -19 30.68 1042.0
15 11:53 W 10 10.00 Fair CLR -11 -20 -11 -21 30.69 1042.6
15 10:53 W 6 10.00 Fair CLR -14 -22 30.71 1043.2
15 09:53 SW 6 10.00 Fair CLR -19 -25 30.71 1043.2
15 08:53 SW 6 10.00 Fair CLR -20 -25 30.70 1043.1
15 07:53 W 8 10.00 Fair CLR -21 -27 30.70 1042.7
15 06:53 W 9 10.00 Fair CLR -21 -26 30.68 1042.0
15 05:53 W 6 10.00 Fair CLR -20 -26 -16 -20 30.67 1041.8
15 04:53 NW 7 10.00 Partly Cloudy SCT010 -20 -26 30.65 1041.2
15 03:53 NW 9 10.00 Fair CLR -19 -26 30.64 1040.8
15 02:53 NW 12 10.00 Fair CLR -19 -25 30.64 1040.7
15 01:53 NW 8 10.00 A Few Clouds FEW010 -19 -25 30.62 1039.9
15 00:53 NW 10 10.00 Fair CLR -17 -24 30.60 1039.3
14 23:53 NW 10 8.00 Fair CLR -16 -24 -7 -16 30.59 1038.7
14 22:53 NW 9 10.00 Fair CLR -14 -22 30.58 1038.5
14 21:53 NW 12 10.00 Fair CLR -12 -21 30.56 1037.9
14 20:53 NW 10 10.00 Fair CLR -11 -20 30.55 1037.4
14 19:53 NW 10 10.00 Fair CLR -9 -20 30.54 1037.0
14 18:53 NW 10 10.00 Fair CLR -7 -19 30.52 1036.2
14 17:53 W 9 10.00 Fair CLR -7 -19 -3 -7 30.50 1035.7